Change the Weather History Date:

Thursday, March 7, 2013

  Actual Average Record
Temperature  
Mean Temperature 34 °F -  
Max Temperature 37 °F 40 °F 66 °F (1974)
Min Temperature 32 °F 26 °F 1 °F (2003)
Degree Days  
Heating Degree Days 30    
Moisture  
Dew Point 27 °F    
Average Humidity 77    
Maximum Humidity 88    
Minimum Humidity 61    
Precipitation  
Precipitation 0.06 in - - ()
Sea Level Pressure  
Sea Level Pressure 30.00 in    
Wind  
Wind Speed 18 mph (North)    
Max Wind Speed 22 mph    
Max Gust Speed 32 mph    
Visibility 4 miles    
Events Snow    
Averages and records for this station are not official NWS values.
T = Trace of Precipitation, MM = Missing Value Source: NWS Daily Summary

Daily Weather History Graph

Daily Weather History Graph

Search for Another Location

Airport or City:

Trip Planner

Search our weather history database for the weather conditions in past years. The results will help you decide how hot, cold, wet, or windy it might be!

Date:

Astronomy

Mar. 07, 2013 Rise Set
Actual Time 6:19 AM EST 5:52 PM EST
Civil Twilight 5:51 AM EST 6:20 PM EST
Nautical Twilight 5:19 AM EST 6:52 PM EST
Astronomical Twilight 4:47 AM EST 7:24 PM EST
Moon 3:18 AM EST (3/7) 1:36 PM EST (3/7)
Length of Visible Light 12h 28m
Length of Day
11h 33m
Waning Crescent, 20% of the Moon is Illuminated
Mar 7
Waning Crescent
Mar 11
New
Mar 19
First Quarter
Mar 27
Full
Apr 3
Last Quarter

Hourly Weather History & Observations

Time (EST) Temp. Windchill Dew Point Humidity Pressure Visibility Wind Dir Wind Speed Gust Speed Precip Events Conditions
12:56 AM 35.1 °F 23.8 °F 27.0 °F 72% 29.94 in 4.0 mi North 20.7 mph 28.8 mph N/A Snow Light Snow
1:56 AM 35.1 °F 24.8 °F 26.1 °F 70% 29.94 in 6.0 mi North 17.3 mph 32.2 mph N/A Snow Light Snow
2:56 AM 35.1 °F 25.2 °F 26.1 °F 70% 29.92 in 10.0 mi NNE 16.1 mph 31.1 mph N/A   Overcast
3:56 AM 35.1 °F 24.8 °F 24.1 °F 64% 29.94 in 10.0 mi North 17.3 mph 28.8 mph N/A   Overcast
4:56 AM 35.1 °F 25.2 °F 23.0 °F 61% 29.96 in 10.0 mi NNE 16.1 mph 27.6 mph N/A   Overcast
5:56 AM 35.1 °F 25.2 °F 23.0 °F 61% 29.97 in 10.0 mi North 16.1 mph 28.8 mph N/A   Mostly Cloudy
6:56 AM 34.0 °F 23.8 °F 24.1 °F 67% 29.99 in 4.0 mi North 16.1 mph - N/A Snow Light Snow
7:01 AM 33.8 °F 23.5 °F 24.8 °F 70% 29.97 in 1.5 mi North 16.1 mph 24.2 mph N/A Snow Light Snow
7:18 AM 33.8 °F 24.8 °F 26.6 °F 75% 29.97 in 1.5 mi North 12.7 mph 21.9 mph N/A Snow Light Snow
7:56 AM 32.0 °F 21.6 °F 27.0 °F 82% 30.00 in 0.5 mi North 15.0 mph 24.2 mph N/A Snow Snow
8:22 AM 32.0 °F 20.1 °F 28.4 °F 87% 29.98 in 1.0 mi North 19.6 mph 25.3 mph N/A Snow Light Snow
8:38 AM 33.8 °F 23.2 °F 26.6 °F 75% 29.98 in 4.0 mi North 17.3 mph 24.2 mph N/A Snow Light Snow
8:56 AM 34.0 °F 23.8 °F 27.0 °F 75% 30.00 in 7.0 mi North 16.1 mph 24.2 mph N/A   Mostly Cloudy
9:56 AM 35.1 °F 24.1 °F 27.0 °F 72% 30.00 in 4.0 mi North 19.6 mph 28.8 mph N/A Snow Light Snow
10:56 AM 36.0 °F 27.1 °F 28.0 °F 73% 30.00 in 6.0 mi North 13.8 mph 29.9 mph N/A Snow Light Snow
11:11 AM 35.6 °F 24.5 °F 28.4 °F 75% 29.99 in 1.8 mi North 20.7 mph 28.8 mph N/A Snow Light Snow
11:56 AM 36.0 °F 26.3 °F 28.9 °F 76% 30.01 in 1.8 mi NNW 16.1 mph 21.9 mph N/A Snow Light Snow
12:03 PM 35.6 °F 26.2 °F 28.4 °F 75% 29.99 in 2.0 mi North 15.0 mph 24.2 mph N/A Snow Light Snow
12:56 PM 37.9 °F 28.5 °F 30.0 °F 73% 30.00 in 7.0 mi NNW 17.3 mph 25.3 mph N/A Snow Light Snow
1:56 PM 36.0 °F 24.7 °F 28.0 °F 73% 30.01 in 6.0 mi North 21.9 mph 29.9 mph N/A Snow Light Snow
2:56 PM 35.1 °F 24.8 °F 28.9 °F 78% 30.03 in 2.5 mi North 17.3 mph 26.5 mph N/A Snow Light Snow
3:22 PM 33.8 °F 22.8 °F 28.4 °F 81% 30.01 in 1.5 mi NNW 18.4 mph 24.2 mph 0.00 in Snow Light Snow
3:56 PM 34.0 °F 25.0 °F 28.9 °F 82% 30.04 in 1.5 mi NNW 12.7 mph 25.3 mph 0.00 in Snow Light Snow
4:56 PM 33.1 °F 21.9 °F 28.9 °F 85% 30.05 in 1.5 mi NNW 18.4 mph 25.3 mph 0.00 in Snow Light Snow
5:56 PM 33.1 °F 21.5 °F 28.9 °F 85% 30.06 in 1.5 mi NNW 19.6 mph 27.6 mph 0.01 in Snow Light Snow
6:56 PM 33.1 °F 21.5 °F 28.9 °F 85% 30.07 in 1.2 mi NNW 19.6 mph 27.6 mph 0.01 in Snow Light Snow
7:56 PM 33.1 °F 21.9 °F 28.9 °F 85% 30.06 in 1.5 mi NNW 18.4 mph 28.8 mph 0.01 in Snow Light Snow
7:58 PM 33.8 °F 22.8 °F 28.4 °F 81% 30.04 in 0.8 mi NNW 18.4 mph 28.8 mph 0.00 in Snow Light Snow
8:56 PM 32.0 °F 19.8 °F 28.9 °F 88% 30.05 in 0.8 mi NNW 20.7 mph 25.3 mph 0.02 in Snow Light Snow
9:56 PM 32.0 °F 21.2 °F 28.9 °F 88% 30.05 in 1.0 mi NNW 16.1 mph 26.5 mph 0.00 in Snow Light Snow
10:56 PM 32.0 °F 21.2 °F 28.9 °F 88% 30.04 in 1.0 mi NNW 16.1 mph - 0.01 in Snow Light Snow
11:56 PM 32.0 °F 21.6 °F 28.0 °F 85% 30.04 in 1.5 mi NNW 15.0 mph 21.9 mph 0.00 in Snow Light Snow